Voltar ao catálogo

STARLINK-3570

AtivoComunicaçõesVLEO
NORAD 51882·PAYLOAD·🇺🇸 United States

Lançado Mar 3, 2022 de Cape Canaveral Space Force Station

Loading…

Próximas Passagens (próximas 24 horas)

TLE

AtualizadoSource: CelesTrak SupGP

Época: Sep 15, 2026, 01:29 UTC

1 51882C 22022AG  26258.06229167 -.00055804  00000+0 -17946-2 0  2588
2 51882  53.1570 215.0835 0001252  90.1241  55.5179 15.31727702    16

Acompanhe STARLINK-3570 em tempo real com AllMySat

Download on the App Store